Change the Weather History Date:

Wednesday, March 6, 2013

  Actual Average (KEDW) Record (KEDW)
Temperature  
Mean Temperature 51 °F -  
Max Temperature 60 °F 64 °F 80 °F (2007)
Min Temperature 42 °F 35 °F 24 °F (1997)
Degree Days  
Heating Degree Days 14    
Growing Degree Days 1 (Base 50)    
Moisture  
Dew Point 36 °F    
Average Humidity 60    
Maximum Humidity 82    
Minimum Humidity 41    
Precipitation  
Precipitation 0.00 in - - ()
Sea Level Pressure  
Sea Level Pressure 29.99 in    
Wind  
Wind Speed 16 mph (SW)    
Max Wind Speed 25 mph    
Max Gust Speed 31 mph    
Visibility 10 miles    
Events      
Averages and records for this station are not official NWS values.
T = Trace of Precipitation, MM = Missing Value Source: NWS Daily Summary

Daily Weather History Graph

Daily Weather History Graph

Search for Another Location

Airport or City:

Trip Planner

Search our weather history database for the weather conditions in past years. The results will help you decide how hot, cold, wet, or windy it might be!

Date:

Astronomy

Mar. 06, 2013 Rise Set
Actual Time 6:13 AM PST 5:51 PM PST
Civil Twilight 5:48 AM PST 6:17 PM PST
Nautical Twilight 5:19 AM PST 6:46 PM PST
Astronomical Twilight 4:49 AM PST 7:15 PM PST
Moon 2:17 AM PST (3/6) 12:48 PM PST (3/6)
Length of Visible Light 12h 28m
Length of Day
11h 37m
Waning Crescent, 29% of the Moon is Illuminated
Mar 6
Waning Crescent
Mar 11
New
Mar 19
First Quarter
Mar 27
Full
Apr 2
Last Quarter

Hourly Weather History & Observations

Time (PST) Temp. Windchill Dew Point Humidity Pressure Visibility Wind Dir Wind Speed Gust Speed Precip Events Conditions
12:55 AM 46.0 °F 39.6 °F 36.0 °F 68% 29.99 in 10.0 mi WSW 15.0 mph 26.5 mph N/A   Clear
1:55 AM 46.0 °F 40.2 °F 35.1 °F 66% 29.97 in 10.0 mi SW 12.7 mph 27.6 mph N/A   Clear
2:55 AM 45.0 °F 36.6 °F 35.1 °F 68% 29.97 in 10.0 mi SW 21.9 mph 29.9 mph N/A   Clear
3:55 AM 44.1 °F 35.2 °F 35.1 °F 71% 29.98 in 10.0 mi SW 23.0 mph 31.1 mph N/A   Clear
4:55 AM 43.0 °F 35.7 °F 34.0 °F 71% 30.01 in 10.0 mi SW 15.0 mph - N/A   Clear
5:55 AM 42.1 °F 35.7 °F 34.0 °F 73% 30.03 in 10.0 mi SW 11.5 mph - N/A   Clear
6:55 AM 43.0 °F 36.8 °F 35.1 °F 74% 30.04 in 10.0 mi SSW 11.5 mph - N/A   Clear
7:55 AM 46.4 °F 39.2 °F 33.8 °F 62% 30.03 in 10.0 mi SW 18.4 mph 24.2 mph N/A   Clear
8:55 AM 51.1 °F - 35.1 °F 54% 30.04 in 10.0 mi SW 18.4 mph - N/A   Clear
9:55 AM 55.0 °F - 35.1 °F 47% 30.03 in 10.0 mi SW 17.3 mph - N/A   Clear
10:55 AM 57.0 °F - 35.1 °F 44% 30.02 in 10.0 mi SW 17.3 mph - N/A   Clear
11:55 AM 59.0 °F - 35.1 °F 41% 30.00 in 10.0 mi SW 20.7 mph - N/A   Clear
12:55 PM 59.0 °F - 36.0 °F 42% 29.98 in 10.0 mi SW 25.3 mph 29.9 mph N/A   Mostly Cloudy
1:55 PM 60.1 °F - 37.0 °F 42% 29.97 in 10.0 mi SW 21.9 mph 29.9 mph N/A   Partly Cloudy
2:25 PM 59.0 °F - 35.6 °F 42% 29.97 in 10.0 mi WSW 19.6 mph 27.6 mph N/A   Overcast
2:55 PM 57.9 °F - 37.0 °F 46% 29.97 in 10.0 mi WSW 17.3 mph 25.3 mph N/A   Overcast
3:00 PM - - - N/A% - - North - - N/A   Unknown
3:01 PM 57.2 °F - 35.6 °F 44% 29.97 in 10.0 mi West 17.3 mph 28.8 mph N/A   Overcast
3:30 PM 57.2 °F - 35.6 °F 44% 29.97 in 10.0 mi West 17.3 mph 25.3 mph N/A   Scattered Clouds
3:55 PM 55.9 °F - 36.0 °F 47% 29.97 in 10.0 mi West 18.4 mph 26.5 mph N/A   Clear
4:55 PM 54.0 °F - 37.9 °F 55% 29.97 in 10.0 mi WSW 15.0 mph 21.9 mph N/A   Clear
5:55 PM 50.0 °F - 37.9 °F 63% 29.99 in 10.0 mi SW 17.3 mph 23.0 mph N/A   Clear
6:55 PM 48.9 °F - 39.0 °F 69% 29.98 in 10.0 mi SW 17.3 mph - N/A   Clear
7:55 PM 46.9 °F - 39.0 °F 74% 29.98 in 10.0 mi SW 11.5 mph - N/A   Clear
8:55 PM 46.0 °F 39.6 °F 37.9 °F 73% 29.96 in 10.0 mi SW 15.0 mph 20.7 mph N/A   Clear
9:55 PM 46.0 °F 39.9 °F 37.0 °F 71% 29.96 in 10.0 mi WSW 13.8 mph 19.6 mph N/A   Partly Cloudy
10:55 PM 44.1 °F 39.5 °F 37.0 °F 76% 29.96 in 10.0 mi WSW 8.1 mph - N/A   Clear
11:55 PM 43.0 °F 39.5 °F 37.9 °F 82% 29.95 in 10.0 mi West 5.8 mph - N/A   Scattered Clouds